Regional Weather Roundup
Issued by NWS Burlington, VT

Home | Current Version | Previous Version | Text Only | Print | Product List | Glossary On
Versions: 1 2 3 4 5 6 7 8 9 10 11 12 13 14 15 16 17 18 19 20 21 22 23 24 25 26 27 28 29 30 31 32 33 34 35 36 37 38 39 40 41 42 43 44 45 46 47 48 49 50
000
ASUS41 KBTV 220630
RWRBTV
VERMONT REGIONAL WEATHER ROUNDUP
NATIONAL WEATHER SERVICE BURLINGTON VT
100 AM EST SUN JAN 22 2017

NOTE: "FAIR" INDICATES FEW OR NO CLOUDS BELOW 12,000 FEET WITH NO
SIGNIFICANT WEATHER AND/OR OBSTRUCTIONS TO VISIBILITY.

* THESE REPORTS ARE NOT UNDER NWS QUALITY CONTROL AND/OR DO NOT
  REPORT WEATHER SUCH AS PRECIPITATION AND FOG.

VTZ001>019-220700-
_____VERMONT_____


CITY           SKY/WX    TMP DP  RH WIND       PRES   REMARKS
BURLINGTON     CLOUDY    39  37  92 CALM      29.75F
6HR MIN TEMP:  38; 6HR MAX TEMP:  41;

MONTPELIER     CLOUDY    35  35 100 CALM      29.76F FOG
6HR MIN TEMP:  34; 6HR MAX TEMP:  38;

MORRISVILLE    FOG       32  32 100 CALM      29.76F VSB 1/2
6HR MIN TEMP:  32; 6HR MAX TEMP:  34;

ST. JOHNSBURY*   N/A     34  34 100 MISG      29.74F
6HR MIN TEMP:  34; 6HR MAX TEMP:  36;

LYNDONVILLE*   FOG       33  33  99 CALM      29.75F VSB 1/4
6HR MIN TEMP:  33; 6HR MAX TEMP:  34;

MIDDLEBURY*    CLOUDY   N/A N/A N/A CALM      29.75R HAZE
RUTLAND*       CLOUDY    38  37  97 CALM      29.74F
6HR MIN TEMP:  36; 6HR MAX TEMP:  44;

SPRINGFIELD    CLOUDY    32  31  96 CALM      29.75F
6HR MIN TEMP:  29; 6HR MAX TEMP:  35;

HIGHGATE*      CLOUDY    35  35 100 N5        29.78S FOG     WCI  31
6HR MIN TEMP:  34; 6HR MAX TEMP:  36;

NEWPORT*       FOG       33  33  99 CALM      29.75S VSB 1/2
6HR MIN TEMP:  33; 6HR MAX TEMP:  36;

BENNINGTON     FOG       36  35  96 CALM      29.73S VSB 1/4
6HR MIN TEMP:  34; 6HR MAX TEMP:  40;

SUTTON*          N/A     34 N/A N/A MISG        N/A
MT. MANSFIELD*   N/A     30 N/A N/A W28         N/A  WCI  16

_____LAKE CHAMPLAIN_____


CITY           SKY/WX    TMP DP  RH WIND       PRES   REMARKS
BURTON ISLAND*   N/A     36  36 100 NE1         N/A
COLCHESTER RF*   N/A     37  37 100 NW6         N/A

$$

NYZ007-026>031-035-052-083-087-220700-
_____NORTHERN NEW YORK_____


CITY           SKY/WX    TMP DP  RH WIND       PRES   REMARKS
PLATTSBURGH    FOG       36  35  96 CALM      29.76F VSB 1/2
6HR MIN TEMP:  35; 6HR MAX TEMP:  39;

SARANAC LAKE   FOG       36  35  96 CALM      29.70F VSB 1/4
6HR MIN TEMP:  35; 6HR MAX TEMP:  38;

MASSENA        CLOUDY    35  34  96 CALM      29.78S FOG
6HR MIN TEMP:  35; 6HR MAX TEMP:  39;

OGDENSBURG*    MOCLDY    38  37  99 CALM      29.75S
6HR MIN TEMP:  37; 6HR MAX TEMP:  38;

POTSDAM*       CLOUDY    37  37 100 E3        29.76R
WATERTOWN      CLOUDY    38  38 100 NE9       29.72S FOG     WCI  31
6HR MIN TEMP:  37; 6HR MAX TEMP:  38;

FT DRUM        CLOUDY    37  36  93 NE9       29.70F WCI  31
6HR MIN TEMP:  36; 6HR MAX TEMP:  38; 6HR PCP: TRACE;

ALBANY         CLOUDY    38  37  97 SW3       29.75S FOG
6HR MIN TEMP:  39; 6HR MAX TEMP:  43;

GLENS FALLS    CLOUDY    32  29  88 CALM      29.74F
6HR MIN TEMP:  30; 6HR MAX TEMP:  36;


$$
NHZ002-005-011-220700-
_____NEW HAMPSHIRE_____


CITY           SKY/WX    TMP DP  RH WIND       PRES   REMARKS
LEBANON        MOCLDY    33  32  96 CALM      29.74S
6HR MIN TEMP:  34; 6HR MAX TEMP:  39;

KEENE          CLOUDY    29  29 100 CALM      29.75F FOG
6HR MIN TEMP:  27; 6HR MAX TEMP:  33;

MT WASHINGTON  FOG       28  28 100 NW53        N/A  VSB 1/16WCI   9
6HR MIN TEMP:  24; 6HR MAX TEMP:  31;

PLYMOUTH       CLOUDY    37  35  92 CALM      29.72F
6HR MIN TEMP:  35; 6HR MAX TEMP:  40;

WHITEFIELD     CLOUDY    34  32  92 CALM      29.73F FOG
6HR MIN TEMP:  34; 6HR MAX TEMP:  36;


$$

_____REGIONAL QUEBEC LOCATIONS_____


CITY           SKY/WX    TMP DP  RH WIND       PRES   REMARKS
MONTREAL       CLOUDY    34  34 100 N8        29.78F FOG     WCI  27
QUEBEC CITY    CLOUDY    30  28  93 NW3       29.78R
SHERBROOKE     FOG       32  32 100 VRB2      29.75F VSB 1

_____REGIONAL ONTARIO LOCATIONS_____


CITY           SKY/WX    TMP DP  RH WIND       PRES   REMARKS
OTTAWA         CLOUDY    34  34 100 N3        29.77S FOG

______KEY______
VSB  - VISIBILITY IN MILES
WCI  - WIND CHILL INDEX
HX   - HEAT INDEX
$$
NNNN




USA.gov is the U.S. government's official web portal to all federal, state and local government web resources and services.